1504814401.2,26389,14.75,73534.5,-3.03,-35.59,-35.29,0,*51
1504814402.45,26390,14.75,73554.0,-3.05,-35.65,-35.47,0,*58
1504814403.7,26391,14.75,73554.3,-3.05,-35.65,-35.47,0,*59
1504814404.98,26392,14.75,73546.0,-3.05,-35.65,-35.35,0,*5F
1504814406.21,26393,14.75,73528.3,-3.07,-35.71,-35.53,0,*59
1504814407.46,26394,14.75,73516.3,-3.05,-35.71,-35.65,0,*59
1504814408.74,26395,14.75,73532.0,-3.05,-35.83,-35.65,0,*55
1504814409.95,26396,14.75,73536.3,-3.07,-35.89,-35.59,0,*51
1504814411.18,26397,14.75,73536.3,-3.09,-35.89,-35.71,0,*54
1504814412.43,26398,14.75,73540.0,-3.09,-36.07,-35.89,0,*59
1504814413.67,26399,14.75,73548.5,-3.09,-36.07,-35.77,0,*59
1504814414.91,26400,14.75,73550.8,-3.09,-35.77,-35.59,0,*56
1504814416.19,26401,14.75,73554.5,-3.09,-35.53,-35.35,0,*5B
1504814417.42,26402,14.75,73554.8,-3.11,-35.59,-35.41,0,*58
1504814418.68,26403,14.75,73552.5,-3.09,-35.71,-35.41,0,*5A
1504814419.89,26404,14.75,73558.0,-3.11,-35.47,-35.29,0,*5F
1504814421.12,26405,14.75,73554.0,-3.11,-35.59,-35.41,0,*5F
1504814422.36,26406,14.75,73556.3,-3.11,-35.83,-35.47,0,*5D
1504814423.62,26407,14.75,73550.5,-3.09,-35.71,-35.35,0,*5D
1504814424.88,26408,14.75,73536.0,-3.09,-35.77,-35.41,0,*57
1504814426.17,26409,14.75,73530.5,-3.09,-35.95,-35.53,0,*59
1504814427.4,26410,14.75,73542.3,-3.11,-36.01,-35.65,0,*53
1504814428.61,26411,14.75,73540.0,-3.11,-36.01,-35.77,0,*51
1504814429.87,26412,14.75,73544.0,-3.11,-36.13,-35.83,0,*5A
1504814431.09,26413,14.75,73550.3,-3.11,-36.01,-35.77,0,*53
1504814432.35,26414,14.75,73548.5,-3.13,-35.83,-35.59,0,*53
1504814433.63,26415,14.75,73528.0,-3.13,-35.83,-35.41,0,*5B
1504814434.88,26416,14.75,73520.8,-3.13,-35.59,-35.23,0,*5B
1504814436.16,26417,14.75,73540.3,-3.13,-35.23,-34.83,0,*5C
1504814437.42,26418,14.75,73540.8,-3.13,-35.07,-34.71,0,*58
1504814438.7,26419,14.75,73544.0,-3.13,-35.07,-34.83,0,*54
1504814439.96,26420,14.75,73540.5,-3.13,-35.23,-35.01,0,*53
1504814441.19,26421,14.75,73546.0,-3.13,-35.17,-35.01,0,*55
1504814442.43,26422,14.75,73562.3,-3.11,-34.83,-34.47,0,*5B
1504814443.7,26423,14.75,73558.3,-3.09,-35.01,-34.65,0,*58
1504814444.9,26424,14.75,73562.0,-3.11,-35.17,-34.89,0,*53
1504814446.16,26425,14.75,73552.5,-3.09,-35.35,-35.01,0,*5A
1504814447.41,26426,14.75,73540.5,-3.11,-35.41,-35.23,0,*53
1504814448.63,26427,14.75,73524.0,-3.11,-35.41,-35.17,0,*55
1504814449.84,26428,14.75,73506.0,-3.11,-35.47,-35.17,0,*5C
1504814451.08,26429,14.75,73540.8,-3.11,-35.01,-34.65,0,*5B
1504814452.29,26430,14.75,73526.3,-3.11,-35.01,-34.71,0,*56
1504814453.55,26431,14.75,73530.5,-3.09,-35.35,-35.13,0,*5C
1504814454.8,26432,14.75,73532.8,-3.11,-35.53,-35.23,0,*55
1504814456.07,26433,14.75,73534.8,-3.09,-35.53,-35.35,0,*5A
1504814457.33,26434,14.75,73544.8,-3.11,-35.65,-35.41,0,*52
1504814458.55,26435,14.75,73560.3,-3.11,-35.41,-35.17,0,*56
1504814459.79,26436,14.75,73546.8,-3.11,-34.89,-34.65,0,*54
1504814461.03,26437,14.75,73532.8,-3.11,-35.01,-34.65,0,*54
1504814462.29,26438,14.75,73562.5,-3.11,-34.83,-34.53,0,*55
1504814463.55,26439,14.75,73556.3,-3.11,-34.83,-34.35,0,*54
1504814464.81,26440,14.75,73558.3,-3.09,-34.95,-34.77,0,*52
1504814466.04,26441,14.75,73556.8,-3.11,-35.23,-35.17,0,*51
1504814467.25,26442,14.75,73556.5,-3.11,-35.29,-35.17,0,*58
1504814468.48,26443,14.75,73552.3,-3.11,-35.41,-35.17,0,*57
1504814469.7,26444,14.75,73550.5,-3.11,-35.41,-35.17,0,*50
1504814470.96,26445,14.75,73550.3,-3.09,-35.35,-35.17,0,*5B
1504814472.19,26446,14.75,73554.8,-3.11,-35.47,-35.41,0,*57
1504814473.4,26447,14.75,73544.8,-3.11,-35.47,-35.29,0,*58
1504814474.63,26448,14.75,73562.8,-3.11,-35.59,-35.41,0,*56
1504814475.84,26449,14.75,73562.8,-3.11,-35.47,-35.29,0,*56
1504814477.09,26450,14.75,73574.3,-3.11,-35.41,-35.23,0,*52
1504814478.3,26451,14.75,73584.5,-3.11,-35.17,-35.17,0,*57
1504814479.5,26452,14.75,73576.3,-3.11,-35.17,-34.89,0,*52
1504814480.7,26453,14.75,73552.5,-3.11,-35.17,-34.89,0,*53
1504814481.93,26454,14.75,73548.8,-3.11,-35.59,-35.41,0,*5B
1504814483.21,26455,14.75,73552.0,-3.13,-35.65,-35.41,0,*57
1504814484.46,26456,14.75,73542.5,-3.13,-35.47,-35.41,0,*54
1504814485.72,26457,14.75,73538.3,-3.13,-35.59,-35.41,0,*5A
1504814486.99,26458,14.75,73580.0,-3.13,-35.41,-35.23,0,*58
1504814488.24,26459,14.75,73570.8,-3.13,-35.59,-35.41,0,*54
1504814489.48,26460,14.75,73574.3,-3.13,-35.59,-35.29,0,*50
1504814490.71,26461,14.75,73574.5,-3.13,-35.47,-35.29,0,*5E
1504814491.97,26462,14.75,73588.0,-3.13,-35.59,-35.41,0,*5C
1504814493.22,26463,14.75,73572.0,-3.17,-35.47,-35.35,0,*55
1504814494.5,26464,14.75,73552.5,-3.17,-35.23,-35.23,0,*57
1504814495.78,26465,14.75,73560.3,-3.13,-35.65,-35.41,0,*54
1504814497.05,26466,14.75,73564.5,-3.17,-35.65,-35.53,0,*50
1504814498.31,26467,14.75,73574.3,-3.17,-35.29,-35.23,0,*5E
1504814499.59,26468,14.75,73574.3,-3.13,-35.41,-35.41,0,*5F
1504814500.84,26469,14.75,73580.8,-3.17,-35.47,-35.35,0,*5F
1504814502.12,26470,14.75,73584.0,-3.13,-35.23,-35.07,0,*50
1504814503.4,26471,14.75,73566.8,-3.17,-35.35,-35.23,0,*54
1504814504.66,26472,14.75,73568.8,-3.17,-34.95,-34.89,0,*5D
1504814505.92,26473,14.75,73574.8,-3.17,-35.13,-34.95,0,*5E
1504814507.15,26474,14.75,73550.3,-3.17,-35.47,-35.29,0,*5E
1504814508.38,26475,14.75,73528.8,-3.19,-35.53,-35.47,0,*5C
1504814509.61,26476,14.75,73534.3,-3.19,-35.65,-35.47,0,*5A
1504814510.86,26477,14.75,73538.3,-3.17,-35.53,-35.47,0,*50
1504814512.14,26478,14.75,73542.8,-3.17,-35.35,-35.35,0,*5A
1504814513.38,26479,14.75,73540.0,-3.19,-35.23,-35.29,0,*5F
1504814514.61,26480,14.75,73530.8,-3.19,-35.47,-35.35,0,*56
1504814515.87,26481,14.75,73544.3,-3.17,-35.35,-35.29,0,*51
1504814517.13,26482,14.75,73570.5,-3.19,-35.07,-35.23,0,*57
1504814518.41,26483,14.75,73562.3,-3.17,-35.07,-35.23,0,*58
1504814519.65,26484,14.75,73542.5,-3.19,-35.23,-35.29,0,*5D
1504814520.88,26485,14.75,73542.5,-3.19,-35.53,-35.47,0,*53
1504814522.14,26486,14.75,73544.3,-3.21,-35.71,-35.53,0,*5E
1504814523.37,26487,14.75,73550.0,-3.19,-35.47,-35.53,0,*51
1504814524.58,26488,14.75,73552.0,-3.19,-35.71,-35.59,0,*51
1504814525.83,26489,14.75,73558.3,-3.21,-35.59,-35.41,0,*58
1504814527.07,26490,14.75,73558.0,-3.21,-35.13,-35.01,0,*5A
1504814528.3,26491,14.75,73558.3,-3.19,-34.25,-34.01,0,*55
1504814529.52,26492,14.75,73560.8,-3.19,-34.77,-34.59,0,*5C
1504814530.78,26493,14.75,73552.0,-3.21,-35.01,-34.83,0,*51
1504814532.01,26494,14.75,73554.3,-3.17,-34.77,-34.59,0,*54
1504814533.25,26495,14.75,73546.8,-3.17,-34.89,-34.77,0,*58
1504814534.48,26496,14.75,73548.5,-3.17,-34.77,-34.41,0,*5F
1504814535.74,26497,14.75,73552.5,-3.17,-34.35,-34.13,0,*5F
1504814537.01,26498,14.75,73552.5,-3.13,-34.19,-34.19,0,*50
1504814538.24,26499,14.75,73552.0,-3.17,-34.25,-34.07,0,*55
1504814539.5,26500,14.75,73556.5,-3.13,-34.31,-33.95,0,*59
1504814540.73,26501,14.75,73560.0,-3.13,-34.13,-33.95,0,*58
1504814541.97,26502,14.75,73556.8,-3.11,-34.13,-34.01,0,*53
1504814543.22,26503,14.75,73564.8,-3.11,-34.35,-34.19,0,*5F
1504814544.45,26504,14.75,73570.8,-3.09,-34.41,-34.25,0,*5D
1504814545.71,26505,14.75,73566.0,-3.09,-34.47,-34.31,0,*5F
1504814546.94,26506,14.75,73556.3,-3.09,-34.59,-34.41,0,*54
1504814548.21,26507,14.75,73562.5,-3.09,-34.65,-34.59,0,*53
1504814549.5,26508,14.75,73574.5,-3.09,-34.65,-34.65,0,*53
1504814550.77,26509,14.75,73562.8,-3.09,-34.83,-34.77,0,*59
1504814552.04,26510,14.75,73562.8,-3.09,-35.01,-34.95,0,*56
1504814553.27,26511,14.75,73554.8,-3.09,-35.13,-35.01,0,*58
1504814554.5,26512,14.75,73558.0,-3.07,-35.23,-35.17,0,*51
1504814555.76,26513,14.75,73556.5,-3.07,-35.35,-35.35,0,*57
1504814557.01,26514,14.75,73556.0,-3.07,-35.53,-35.35,0,*50
1504814558.27,26515,14.75,73556.3,-3.09,-35.59,-35.41,0,*56
1504814559.55,26516,14.75,73558.3,-3.09,-35.23,-35.23,0,*5C
1504814560.75,26517,14.75,73556.3,-3.11,-35.17,-35.13,0,*50
1504814561.96,26518,14.75,73558.0,-3.11,-35.17,-35.17,0,*5B
1504814563.19,26519,14.75,73556.8,-3.11,-34.83,-34.71,0,*57
1504814564.43,26520,14.75,73558.5,-3.11,-34.65,-34.47,0,*50
1504814565.64,26521,14.75,73558.3,-3.11,-34.59,-34.41,0,*58
1504814566.9,26522,14.75,73556.5,-3.09,-34.47,-34.31,0,*5A
1504814568.17,26523,14.75,73560.0,-3.09,-34.65,-34.47,0,*5A
1504814569.42,26524,14.75,73562.3,-3.11,-34.71,-34.65,0,*51
1504814570.71,26525,14.75,73564.3,-3.09,-34.65,-34.65,0,*5C
1504814571.98,26526,14.75,73560.3,-3.09,-34.65,-34.59,0,*50
1504814573.24,26527,14.75,73568.5,-3.07,-34.83,-34.65,0,*58
1504814574.49,26528,14.75,73572.0,-3.07,-35.01,-34.95,0,*53
1504814575.72,26529,14.75,73582.5,-3.07,-35.01,-34.83,0,*55
1504814576.97,26530,14.75,73580.8,-3.07,-34.77,-34.65,0,*55
1504814578.23,26531,14.75,73578.8,-3.07,-34.95,-34.83,0,*50
1504814579.46,26532,14.75,73574.5,-3.09,-35.17,-35.17,0,*5A
1504814580.69,26533,14.75,73560.8,-3.09,-35.13,-35.13,0,*5B
1504814581.93,26534,14.75,73550.8,-3.09,-35.13,-35.01,0,*5F
1504814583.16,26535,14.75,73530.0,-3.09,-35.17,-35.01,0,*5A
1504814584.39,26536,14.75,73540.0,-3.07,-35.35,-35.17,0,*50
1504814585.6,26537,14.75,73538.3,-3.07,-35.13,-35.13,0,*51
1504814586.8,26538,14.75,73538.3,-3.07,-35.17,-35.17,0,*5E
1504814588.05,26539,14.75,73542.8,-3.09,-35.01,-35.01,0,*51
1504814589.31,26540,14.75,73548.3,-3.09,-35.01,-34.83,0,*54
1504814590.6,26541,14.75,73548.0,-3.09,-34.95,-34.95,0,*5E
1504814591.89,26542,14.75,73536.0,-3.09,-34.95,-34.95,0,*5D
1504814593.16,26543,14.75,73516.5,-3.09,-34.83,-34.77,0,*57
1504814594.42,26544,14.75,73518.0,-3.09,-34.83,-34.77,0,*50
1504814595.66,26545,14.75,73506.0,-3.09,-35.17,-35.13,0,*5E
1504814596.89,26546,14.75,73504.5,-3.09,-35.13,-35.13,0,*59
1504814598.1,26547,14.75,73498.3,-3.11,-35.17,-35.17,0,*51
1504814599.33,26548,14.75,73502.3,-3.09,-35.13,-35.17,0,*53
1504814600.6,26549,14.75,73500.0,-3.09,-35.41,-35.23,0,*52
1504814601.84,26550,14.75,73508.0,-3.11,-35.47,-35.41,0,*51
1504814603.09,26551,14.75,73514.3,-3.11,-35.23,-35.23,0,*56
1504814604.35,26552,14.69,73480.0,-3.09,-35.23,-35.17,0,*5B
1504814605.63,26553,14.75,73458.5,-3.09,-35.23,-35.35,0,*5A
1504814606.88,26554,14.75,73502.3,-3.11,-35.41,-35.41,0,*53
1504814608.14,26555,14.75,73520.3,-3.11,-35.41,-35.41,0,*52
1504814609.37,26556,14.75,73528.5,-3.11,-35.29,-35.41,0,*5F
1504814610.58,26557,14.75,73558.3,-3.11,-34.89,-35.17,0,*56
1504814611.81,26558,14.75,73564.8,-3.11,-34.89,-35.23,0,*5E
1504814613.07,26559,14.75,73552.8,-3.09,-34.95,-35.17,0,*5C
1504814614.28,26560,14.75,73532.3,-3.11,-35.17,-35.29,0,*59
1504814615.54,26561,14.75,73542.5,-3.13,-35.29,-35.41,0,*59
1504814616.82,26562,14.75,73554.8,-3.17,-35.35,-35.35,0,*50
1504814618.08,26563,14.75,73574.8,-3.13,-35.29,-35.41,0,*5B
1504814619.31,26564,14.75,73562.5,-3.13,-35.01,-34.89,0,*53
1504814620.56,26565,14.75,73558.5,-3.13,-34.89,-34.83,0,*59
1504814621.79,26566,14.75,73560.5,-3.13,-34.89,-34.89,0,*50
1504814623.04,26567,14.75,73558.5,-3.13,-35.17,-35.07,0,*50
1504814624.27,26568,14.75,73560.3,-3.13,-35.17,-35.17,0,*5E
1504814625.51,26569,14.75,73552.0,-3.13,-34.71,-34.71,0,*5F
1504814626.74,26570,14.69,73540.0,-3.11,-34.83,-34.71,0,*58
1504814627.97,26571,14.75,73552.3,-3.11,-35.17,-35.23,0,*53
1504814629.2,26572,14.75,73542.5,-3.11,-35.29,-35.41,0,*59
1504814630.41,26573,14.75,73550.0,-3.11,-35.47,-35.47,0,*56
1504814631.62,26574,14.75,73546.5,-3.11,-35.59,-35.47,0,*5E
1504814632.83,26575,14.75,73552.0,-3.11,-35.59,-35.47,0,*5F
1504814634.04,26576,14.75,73558.3,-3.11,-35.47,-35.47,0,*53
1504814635.29,26577,14.75,73556.3,-3.17,-35.53,-35.47,0,*51
1504814636.52,26578,14.75,73560.0,-3.17,-35.47,-35.47,0,*5B
1504814637.78,26579,14.75,73556.3,-3.13,-35.41,-35.29,0,*50
1504814639.03,26580,14.75,73552.5,-3.13,-35.41,-35.29,0,*56
1504814640.31,26581,14.75,73556.5,-3.13,-35.23,-35.23,0,*59
1504814641.56,26582,14.75,73554.3,-3.13,-35.29,-35.23,0,*50
1504814642.82,26583,14.75,73556.8,-3.13,-35.07,-35.17,0,*5A
1504814644.09,26584,14.75,73566.5,-3.13,-34.71,-34.65,0,*59
1504814645.38,26585,14.75,73560.8,-3.13,-35.07,-35.07,0,*5D
1504814646.59,26586,14.75,73548.8,-3.11,-35.13,-35.13,0,*5C
1504814647.85,26587,14.75,73542.5,-3.11,-35.07,-35.07,0,*5D
1504814649.06,26588,14.75,73550.5,-3.11,-34.89,-35.01,0,*53
1504814650.3,26589,14.75,73526.5,-3.13,-35.01,-35.01,0,*51
1504814651.5,26590,14.75,73512.0,-3.11,-35.17,-35.17,0,*5B
1504814652.71,26591,14.69,73520.0,-3.11,-35.47,-35.29,0,*52
1504814653.92,26592,14.75,73508.8,-3.11,-35.47,-35.47,0,*59
1504814655.15,26593,14.75,73520.0,-3.11,-35.41,-35.29,0,*56
1504814656.43,26594,14.75,73538.3,-3.13,-35.41,-35.23,0,*59
1504814657.68,26595,14.75,73538.5,-3.13,-35.23,-35.17,0,*5B
1504814658.95,26596,14.75,73558.8,-3.13,-35.07,-35.01,0,*59
1504814660.19,26597,14.75,73562.0,-3.13,-35.01,-35.01,0,*5E
1504814661.45,26598,14.69,73560.8,-3.13,-35.01,-34.83,0,*5A
1504814662.67,26599,14.75,73560.8,-3.13,-35.17,-34.89,0,*56
1504814663.9,26600,14.69,73560.5,-3.11,-35.23,-35.17,0,*56
1504814665.15,26601,14.69,73546.0,-3.11,-35.41,-35.23,0,*54
1504814666.36,26602,14.69,73550.0,-3.11,-35.47,-35.29,0,*5B
1504814667.57,26603,14.75,73544.8,-3.11,-35.59,-35.29,0,*55
1504814668.82,26604,14.69,73544.8,-3.11,-35.65,-35.41,0,*53
1504814670.08,26605,14.75,73546.3,-3.11,-35.65,-35.41,0,*52
1504814671.33,26606,14.69,73544.5,-3.09,-35.59,-35.35,0,*54
1504814672.59,26607,14.75,73552.8,-3.13,-35.65,-35.29,0,*5C
1504814673.82,26608,14.69,73554.0,-3.17,-35.71,-35.47,0,*5A
1504814675.06,26609,14.75,73560.3,-3.13,-35.77,-35.47,0,*59
1504814676.31,26610,14.69,73552.0,-3.13,-35.65,-35.47,0,*52
1504814677.57,26611,14.75,73538.3,-3.13,-35.77,-35.41,0,*56
1504814678.81,26612,14.69,73534.0,-3.13,-35.77,-35.29,0,*5B
1504814680.05,26613,14.75,73544.3,-3.13,-35.77,-35.29,0,*5A
1504814681.31,26614,14.69,73542.5,-3.17,-35.83,-35.13,0,*5B
1504814682.57,26615,14.69,73536.5,-3.17,-35.35,-34.77,0,*54
1504814683.83,26616,14.69,73528.8,-3.13,-35.17,-34.65,0,*50
1504814685.11,26617,14.69,73530.0,-3.13,-35.07,-34.83,0,*58
1504814686.34,26618,14.69,73538.0,-3.13,-35.47,-35.29,0,*52
1504814687.58,26619,14.75,73546.5,-3.13,-35.59,-35.29,0,*5C
1504814688.85,26620,14.69,73538.5,-3.17,-35.65,-35.23,0,*57
1504814690.12,26621,14.75,73542.3,-3.17,-35.65,-35.23,0,*56
1504814691.39,26622,14.75,73536.5,-3.17,-35.53,-35.23,0,*50
1504814692.64,26623,14.69,73540.5,-3.17,-35.53,-35.47,0,*53
1504814693.9,26624,14.75,73534.8,-3.17,-35.71,-35.53,0,*51
1504814695.16,26625,14.75,73540.8,-3.17,-35.71,-35.53,0,*50
1504814696.39,26626,14.69,73542.3,-3.19,-35.65,-35.47,0,*5D
1504814697.67,26627,14.69,73548.5,-3.17,-35.65,-35.53,0,*57
1504814698.92,26628,14.69,73538.0,-3.17,-35.47,-35.35,0,*58
1504814700.18,26629,14.75,73550.0,-3.13,-35.07,-34.89,0,*5F
1504814701.41,26630,14.75,73544.5,-3.19,-35.13,-35.07,0,*5F
1504814702.66,26631,14.75,73554.3,-3.19,-35.35,-35.23,0,*5C
1504814703.92,26632,14.69,73554.0,-3.17,-35.35,-35.13,0,*52
1504814705.17,26633,14.69,73556.5,-3.17,-35.29,-35.23,0,*5D
1504814706.45,26634,14.75,73548.5,-3.17,-35.35,-35.23,0,*57
1504814707.73,26635,14.69,73548.0,-3.17,-35.23,-35.07,0,*57
1504814708.99,26636,14.69,73548.0,-3.13,-34.83,-34.71,0,*5B
1504814710.25,26637,14.69,73544.5,-3.13,-35.01,-34.83,0,*5C
1504814711.5,26638,14.75,73546.8,-3.13,-35.23,-35.17,0,*5F
1504814712.76,26639,14.75,73536.3,-3.13,-35.41,-35.29,0,*57
1504814714.03,26640,14.75,73540.5,-3.17,-35.53,-35.35,0,*53
1504814715.32,26641,14.69,73562.3,-3.17,-35.83,-35.53,0,*5F
1504814716.57,26642,14.69,73558.5,-3.17,-35.71,-35.53,0,*51
1504814717.83,26643,14.69,73566.8,-3.17,-35.29,-35.23,0,*5A
1504814719.08,26644,14.69,73530.8,-3.13,-35.41,-35.29,0,*5D
1504814720.34,26645,14.75,73542.8,-3.17,-35.47,-35.23,0,*54
1504814721.61,26646,14.69,73548.8,-3.17,-35.35,-35.23,0,*52
1504814722.84,26647,14.75,73556.3,-3.17,-34.89,-34.71,0,*53
1504814724.1,26648,14.69,73552.8,-3.17,-34.95,-34.89,0,*56
1504814725.34,26649,14.69,73552.5,-3.13,-35.01,-34.71,0,*58
1504814726.57,26650,14.69,73538.0,-3.13,-34.89,-34.71,0,*51
1504814727.84,26651,14.69,73550.3,-3.13,-35.41,-35.23,0,*53
1504814729.1,26652,14.69,73558.3,-3.13,-35.59,-35.41,0,*5D
1504814730.37,26653,14.69,73564.3,-3.13,-35.41,-35.23,0,*51
1504814731.64,26654,14.69,73540.8,-3.13,-35.41,-35.23,0,*56
1504814732.9,26655,14.69,73556.3,-3.13,-35.01,-34.83,0,*58
1504814734.14,26656,14.69,73552.3,-3.17,-35.29,-35.29,0,*54
1504814735.36,26657,14.69,73550.5,-3.11,-35.41,-35.17,0,*50
1504814736.62,26658,14.69,73546.3,-3.09,-35.35,-35.17,0,*55
1504814737.85,26659,14.69,73536.3,-3.11,-35.29,-35.23,0,*57
1504814739.11,26660,14.69,73542.3,-3.13,-35.23,-35.01,0,*55
1504814740.39,26661,14.69,73524.0,-3.17,-35.35,-35.07,0,*51
1504814741.67,26662,14.69,73528.3,-3.13,-35.23,-35.07,0,*51
1504814742.93,26663,14.69,73530.0,-3.13,-35.23,-35.01,0,*56
1504814744.19,26664,14.69,73530.8,-3.13,-35.23,-35.01,0,*51
1504814745.46,26665,14.69,73528.5,-3.13,-35.41,-35.23,0,*54
1504814746.73,26666,14.69,73528.0,-3.13,-35.41,-35.23,0,*57
1504814747.99,26667,14.69,73524.8,-3.13,-35.47,-35.41,0,*54
1504814749.22,26668,14.69,73536.8,-3.13,-35.77,-35.47,0,*5E
1504814750.5,26669,14.69,73540.5,-3.17,-35.53,-35.35,0,*58
1504814751.73,26670,14.75,73548.0,-3.13,-35.59,-35.29,0,*53
1504814752.98,26671,14.69,73540.5,-3.17,-35.65,-35.47,0,*51
1504814754.24,26672,14.69,73538.8,-3.17,-35.53,-35.29,0,*5F
1504814755.51,26673,14.69,73548.0,-3.17,-35.65,-35.23,0,*51
1504814756.75,26674,14.75,73548.8,-3.13,-35.29,-35.13,0,*59
1504814758.0,26675,14.69,73546.5,-3.13,-35.07,-34.89,0,*56
1504814759.26,26676,14.75,73556.0,-3.13,-35.29,-35.07,0,*5E
1504814760.49,26677,14.69,73546.3,-3.17,-35.47,-35.13,0,*56
1504814761.75,26678,14.69,73534.0,-3.17,-35.47,-35.07,0,*5C
1504814763.0,26679,14.69,73520.8,-3.13,-35.17,-34.83,0,*51
1504814764.28,26680,14.69,73524.8,-3.13,-35.07,-34.53,0,*5B
1504814765.52,26681,14.69,73502.3,-3.13,-35.01,-34.07,0,*5D
1504814766.81,26682,14.69,73534.8,-3.17,-35.07,-33.09,0,*55
1504814768.08,26683,14.69,73534.3,-3.13,-34.71,-31.23,0,*5A
1504814769.35,26684,14.69,73538.3,-3.13,-32.69,-30.61,0,*55
1504814770.58,26685,14.69,73540.5,-3.13,-31.29,-31.45,0,*54
1504814771.84,26686,14.69,73550.5,-3.13,-32.13,-31.85,0,*51
1504814773.12,26687,14.69,73552.0,-3.13,-33.27,-31.11,0,*5B
1504814774.39,26688,14.69,73550.5,-3.13,-32.69,-30.01,0,*5F
1504814775.67,26689,14.69,73554.0,-3.13,-30.73,-30.01,0,*57
1504814776.9,26690,14.69,73558.5,-3.13,-30.33,-30.23,0,*5B
1504814778.18,26691,14.69,73554.8,-3.13,-30.17,-28.63,0,*51
1504814779.44,26692,14.69,73550.5,-3.17,-28.15,-28.59,0,*54
1504814780.73,26693,14.69,73542.3,-3.17,-31.61,-29.35,0,*55
1504814782.01,26694,14.69,73524.8,-3.13,-30.73,-27.61,0,*5B
1504814783.29,26695,14.69,73536.5,-3.17,-27.83,-29.35,0,*58
1504814784.56,26696,14.69,73540.3,-3.13,-29.45,-32.19,0,*5F
1504814785.83,26697,14.69,73532.8,-3.13,-33.89,-34.83,0,*50
1504814787.1,26698,14.69,73542.0,-3.17,-34.77,-34.95,0,*5A
1504814788.34,26699,14.69,73532.0,-3.13,-35.01,-35.01,0,*53
1504814789.62,26700,14.69,73526.3,-3.13,-35.07,-35.07,0,*52
1504814790.86,26701,14.69,73516.3,-3.13,-35.59,-35.29,0,*54
1504814792.09,26702,14.69,73504.0,-3.13,-35.47,-35.29,0,*58
1504814793.37,26703,14.69,73508.8,-3.13,-35.41,-35.23,0,*55
1504814794.6,26704,14.69,73508.8,-3.13,-35.59,-35.29,0,*51
1504814795.83,26705,14.69,73508.8,-3.13,-35.59,-35.29,0,*50
1504814797.09,26706,14.69,73506.3,-3.13,-35.59,-35.41,0,*5D
1504814798.34,26707,14.69,73518.5,-3.13,-35.47,-35.23,0,*57
1504814799.59,26708,14.69,73524.0,-3.13,-35.59,-35.23,0,*57
1504814800.84,26709,14.69,73530.8,-3.13,-35.59,-35.41,0,*52
1504814802.1,26710,14.69,73538.0,-3.17,-35.83,-35.47,0,*5F
1504814803.34,26711,14.69,73560.3,-3.13,-35.47,-35.29,0,*5A
1504814804.59,26712,14.69,73546.3,-3.17,-35.53,-35.29,0,*58
1504814805.85,26713,14.69,73536.5,-3.17,-35.47,-35.23,0,*56
1504814807.1,26714,14.69,73542.5,-3.17,-35.29,-35.07,0,*5F
1504814808.38,26715,14.69,73546.0,-3.17,-35.53,-35.35,0,*52
1504814809.63,26716,14.69,73546.8,-3.13,-35.59,-35.41,0,*5C
1504814810.89,26717,14.69,73540.3,-3.17,-35.65,-35.29,0,*58
1504814812.12,26718,14.69,73542.3,-3.17,-35.47,-35.13,0,*5E
1504814813.38,26719,14.69,73538.0,-3.17,-35.35,-35.13,0,*5A
1504814814.66,26720,14.69,73532.0,-3.17,-35.23,-35.07,0,*52
1504814815.91,26721,14.69,73540.0,-3.17,-35.65,-35.29,0,*5D
1504814817.17,26722,14.69,73550.8,-3.17,-35.53,-35.29,0,*5B
1504814818.42,26723,14.75,73556.0,-3.17,-35.47,-35.23,0,*55
1504814819.67,26724,14.69,73548.8,-3.13,-35.47,-35.23,0,*56
1504814820.91,26725,14.69,73510.3,-3.17,-35.47,-35.29,0,*59
1504814822.14,26726,14.69,73522.0,-3.17,-35.71,-35.47,0,*57
1504814823.4,26727,14.69,73530.5,-3.17,-35.71,-35.35,0,*53
1504814824.67,26728,14.69,73550.0,-3.17,-35.53,-35.23,0,*5B
1504814825.92,26729,14.69,73554.8,-3.17,-35.53,-35.29,0,*50
1504814827.18,26730,14.69,73560.8,-3.17,-35.65,-35.29,0,*5D
1504814828.43,26731,14.69,73550.5,-3.17,-35.53,-35.29,0,*59
1504814829.67,26732,14.69,73540.5,-3.19,-35.65,-35.29,0,*51
1504814830.9,26733,14.69,73534.8,-3.19,-35.65,-35.47,0,*58
1504814832.13,26734,14.69,73520.3,-3.19,-35.65,-35.47,0,*5F
1504814833.34,26735,14.69,73526.8,-3.19,-35.71,-35.47,0,*5B
1504814834.58,26736,14.69,73532.5,-3.19,-35.53,-35.35,0,*5D
1504814835.82,26737,14.69,73542.0,-3.21,-35.29,-35.13,0,*5E
1504814837.06,26738,14.69,73538.5,-3.21,-35.29,-35.17,0,*55
1504814838.29,26739,14.69,73530.0,-3.19,-35.41,-35.29,0,*5C
1504814839.55,26740,14.69,73538.3,-3.21,-35.59,-35.35,0,*5D
1504814840.8,26741,14.69,73540.8,-3.19,-35.53,-35.35,0,*5D
1504814842.01,26742,14.69,73558.5,-3.19,-35.47,-35.29,0,*56
1504814843.22,26743,14.69,73550.5,-3.19,-35.13,-35.13,0,*5F
1504814844.47,26744,14.69,73548.3,-3.19,-35.23,-35.07,0,*5E
1504814845.74,26745,14.69,73572.8,-3.19,-35.07,-34.95,0,*53
1504814846.98,26746,14.69,73564.0,-3.21,-34.77,-34.47,0,*52
1504814848.26,26747,14.69,73562.8,-3.21,-34.65,-34.31,0,*51
1504814849.48,26748,14.69,73534.8,-3.19,-34.59,-34.13,0,*5A
1504814850.72,26749,14.69,73530.0,-3.19,-34.59,-34.01,0,*58
1504814851.96,26750,14.69,73540.8,-3.19,-34.77,-34.01,0,*5C
1504814853.2,26751,14.69,73540.3,-3.19,-34.95,-34.13,0,*52
1504814854.42,26752,14.69,73548.0,-3.19,-34.89,-34.35,0,*58
1504814855.63,26753,14.69,73544.8,-3.19,-34.77,-34.25,0,*59
1504814856.84,26754,14.69,73546.8,-3.19,-34.71,-34.41,0,*5A
1504814858.05,26755,14.69,73546.8,-3.19,-34.77,-34.77,0,*58
1504814859.26,26756,14.69,73548.5,-3.19,-34.77,-34.89,0,*5A
1504814860.47,26757,14.69,73544.0,-3.19,-34.89,-35.13,0,*58
1504814861.71,26758,14.69,73542.5,-3.19,-35.07,-35.29,0,*59
1504814862.97,26759,14.69,73524.0,-3.19,-35.35,-35.35,0,*54
1504814864.22,26760,14.69,73528.5,-3.19,-35.35,-35.35,0,*5E
1504814865.46,26761,14.69,73542.5,-3.19,-35.35,-35.29,0,*52
1504814866.71,26762,14.69,73528.3,-3.19,-35.23,-35.23,0,*5C
1504814867.97,26763,14.69,73518.0,-3.19,-35.35,-35.35,0,*5D
1504814869.2,26764,14.69,73518.5,-3.19,-35.65,-35.47,0,*5A
1504814870.43,26765,14.69,73506.8,-3.19,-35.71,-35.65,0,*5E
1504814871.66,26766,14.69,73520.5,-3.19,-35.65,-35.47,0,*58
1504814872.9,26767,14.69,73528.5,-3.21,-35.29,-35.29,0,*52
1504814874.16,26768,14.69,73514.0,-3.19,-35.07,-35.07,0,*56
1504814875.4,26769,14.69,73508.5,-3.21,-35.17,-35.01,0,*5B
1504814876.63,26770,14.69,73526.5,-3.19,-35.07,-34.89,0,*58
1504814877.84,26771,14.69,73532.0,-3.19,-34.77,-34.71,0,*58
1504814879.1,26772,14.69,73530.5,-3.17,-35.23,-35.13,0,*50
1504814880.36,26773,14.69,73528.3,-3.17,-35.47,-35.35,0,*57
1504814881.61,26774,14.69,73534.0,-3.17,-35.53,-35.47,0,*50
1504814882.88,26775,14.69,73536.5,-3.17,-35.53,-35.35,0,*54
1504814884.11,26776,14.69,73542.8,-3.19,-35.65,-35.47,0,*59
1504814885.34,26777,14.69,73540.0,-3.19,-35.53,-35.47,0,*5D
1504814886.59,26778,14.69,73542.0,-3.19,-35.53,-35.35,0,*57
1504814887.8,26779,14.69,73528.3,-3.19,-35.29,-35.13,0,*5F
1504814889.06,26780,14.69,73534.5,-3.21,-35.35,-35.29,0,*56
1504814890.29,26781,14.69,73534.8,-3.19,-35.47,-35.35,0,*54
1504814891.53,26782,14.69,73536.3,-3.17,-35.29,-35.29,0,*5C
1504814892.79,26783,14.69,73538.8,-3.17,-35.13,-34.95,0,*52
1504814894.05,26784,14.69,73538.0,-3.17,-34.95,-34.89,0,*57
1504814895.29,26785,14.69,73550.5,-3.17,-35.29,-35.13,0,*52
1504814896.54,26786,14.69,73548.8,-3.19,-35.53,-35.35,0,*56
1504814897.8,26787,14.69,73542.5,-3.17,-35.35,-35.29,0,*54
1504814899.01,26788,14.69,73538.0,-3.19,-35.47,-35.29,0,*50